Date String (YYYY-MM-DD hh:mm:ss) UTC,Instrument flags,Ambient pressure (hPa),Sample flow (lpm),Bypass flow (lpm),Sample temperature (°C),Ambient temperature (°C),ASC tube jacket temperature (°C),LED temperature (°C),Box temperature (°C),Sample RH (%),Span deviation,Mass concentration (μg/m³),Mass concentration (μg/m³),Mass concentration (μg/m³)
DateTimeUTC,F1_M11,P_M11,Q1_M11,Q2_M11,T1_M11,T2_M11,T3_M11,T4_M11,T5_M11,U1_M11,ZSPAN_M11,X0_M11,X2_M11,X1_M11
2022-08-17 23:00:00,,0831.2,5.00,0.00,29.4,28.0,00.0,38.1,31.3,18.8,0000.0,0008.15,0004.30,0003.80
2022-08-17 23:01:00,,0831.2,5.00,0.00,29.4,28.1,00.0,38.1,31.4,18.0,0000.0,0008.54,0004.29,0003.79
2022-08-17 23:02:00,,0831.2,4.99,0.00,29.5,28.3,00.0,38.1,31.5,17.3,0000.0,0008.88,0004.27,0003.78
2022-08-17 23:03:00,,0831.2,5.00,0.00,29.5,28.5,00.0,38.2,31.5,17.4,0000.0,0008.82,0004.23,0003.77
2022-08-17 23:04:00,,0831.2,5.01,0.00,29.5,28.4,00.0,38.2,31.5,17.0,0000.0,0008.29,0004.21,0003.76
2022-08-17 23:05:00,,0831.2,5.00,0.00,29.5,27.7,00.0,38.1,31.3,17.6,0000.0,0008.27,0004.20,0003.76
2022-08-17 23:06:00,,0831.2,5.01,0.00,29.4,27.2,00.0,38.1,31.1,17.6,0000.0,0008.28,0004.18,0003.76
2022-08-17 23:07:00,,0831.2,4.99,0.00,29.4,27.1,00.0,38.1,31.1,17.5,0000.0,0008.29,0004.17,0003.75
2022-08-17 23:08:00,,0831.2,5.01,0.00,29.3,27.2,00.0,38.1,31.1,17.1,0000.0,0008.19,0004.14,0003.74
2022-08-17 23:09:00,,0831.2,5.00,0.00,29.3,27.4,00.0,38.1,31.1,16.9,0000.0,0008.29,0004.16,0003.74
2022-08-17 23:10:00,,0831.2,5.00,0.00,29.3,27.6,00.0,38.1,31.2,17.4,0000.0,0008.23,0004.17,0003.75
2022-08-17 23:11:00,,0831.2,5.00,0.00,29.3,27.8,00.0,38.1,31.3,17.4,0000.0,0008.25,0004.20,0003.76
2022-08-17 23:12:00,,0831.2,5.00,0.00,29.4,28.0,00.0,38.1,31.4,17.9,0000.0,0008.18,0004.20,0003.78
2022-08-17 23:13:00,,0831.2,4.99,0.00,29.4,28.2,00.0,38.1,31.4,17.5,0000.0,0007.52,0004.20,0003.79
2022-08-17 23:14:00,,0831.2,5.01,0.00,29.5,28.3,00.0,38.1,31.5,16.7,0000.0,0007.79,0004.21,0003.80
2022-08-17 23:15:00,,0831.2,4.99,0.00,29.5,28.5,00.0,38.2,31.6,16.5,0000.0,0008.47,0004.23,0003.81
2022-08-17 23:16:00,,0831.2,5.01,0.00,29.6,28.6,00.0,38.2,31.6,16.8,0000.0,0008.59,0004.22,0003.81
2022-08-17 23:17:00,,0831.2,5.00,0.00,29.6,28.1,00.0,38.2,31.4,16.8,0000.0,0008.69,0004.23,0003.82
2022-08-17 23:18:00,,0831.2,4.99,0.00,29.5,27.4,00.0,38.1,31.2,17.5,0000.0,0009.20,0004.21,0003.81
2022-08-17 23:19:00,,0831.1,5.01,0.00,29.4,27.2,00.0,38.1,31.2,17.2,0000.0,0009.43,0004.19,0003.82
2022-08-17 23:20:00,,0831.2,4.99,0.00,29.3,27.3,00.0,38.1,31.1,16.7,0000.0,0009.57,0004.17,0003.82
2022-08-17 23:21:00,,0831.2,5.01,0.00,29.3,27.4,00.0,38.1,31.1,16.8,0000.0,0009.83,0004.18,0003.82
2022-08-17 23:22:00,,0831.2,5.00,0.00,29.3,27.6,00.0,38.1,31.2,16.5,0000.0,0010.23,0004.16,0003.82
2022-08-17 23:23:00,,0831.2,5.00,0.00,29.4,27.8,00.0,38.1,31.3,17.5,0000.0,0010.11,0004.13,0003.81
2022-08-17 23:24:00,,0831.2,4.99,0.00,29.4,28.0,00.0,38.1,31.4,18.0,0000.0,0010.07,0004.13,0003.80
2022-08-17 23:25:00,,0831.2,5.00,0.00,29.4,28.2,00.0,38.1,31.4,17.1,0000.0,0009.79,0004.13,0003.79
2022-08-17 23:26:00,,0831.1,5.00,0.00,29.5,28.3,00.0,38.1,31.5,16.9,0000.0,0009.13,0004.12,0003.78
2022-08-17 23:27:00,,0831.2,4.99,0.00,29.5,28.5,00.0,38.2,31.6,16.8,0000.0,0008.95,0004.12,0003.78
2022-08-17 23:28:00,,0831.2,5.01,0.00,29.6,28.6,00.0,38.2,31.6,16.7,0000.0,0009.50,0004.10,0003.76
2022-08-17 23:29:00,,0831.1,5.00,0.00,29.6,28.2,00.0,38.2,31.4,16.6,0000.0,0009.36,0004.12,0003.75
2022-08-17 23:30:00,,0831.1,4.99,0.00,29.5,27.4,00.0,38.2,31.2,16.3,0000.0,0009.49,0004.15,0003.74
2022-08-17 23:31:00,,0831.1,5.00,0.00,29.4,27.1,00.0,38.1,31.1,16.1,0000.0,0009.20,0004.14,0003.74
2022-08-17 23:32:00,,0831.0,5.00,0.00,29.4,27.2,00.0,38.1,31.1,16.3,0000.0,0008.90,0004.10,0003.72
2022-08-17 23:33:00,,0831.1,5.00,0.00,29.3,27.3,00.0,38.1,31.1,16.4,0000.0,0008.57,0004.08,0003.71
2022-08-17 23:34:00,,0831.0,5.00,0.00,29.3,27.5,00.0,38.1,31.2,16.4,0000.0,0008.67,0004.10,0003.70
2022-08-17 23:35:00,,0831.1,5.00,0.00,29.4,27.7,00.0,38.1,31.3,16.7,0000.0,0009.04,0004.08,0003.68
2022-08-17 23:36:00,,0831.0,5.00,0.00,29.4,27.9,00.0,38.1,31.3,16.2,0000.0,0010.04,0004.05,0003.65
2022-08-17 23:37:00,,0831.0,4.99,0.00,29.4,28.1,00.0,38.1,31.4,16.2,0000.0,0010.04,0004.04,0003.64
2022-08-17 23:38:00,,0831.1,5.00,0.00,29.5,28.3,00.0,38.2,31.5,16.3,0000.0,0010.00,0004.03,0003.62
2022-08-17 23:39:00,,0831.0,5.01,0.00,29.5,28.5,00.0,38.2,31.6,16.1,0000.0,0009.41,0004.02,0003.63
2022-08-17 23:40:00,,0831.0,4.99,0.00,29.6,28.6,00.0,38.2,31.6,16.2,0000.0,0008.89,0004.01,0003.63
2022-08-17 23:41:00,,0831.0,4.99,0.00,29.6,28.4,00.0,38.2,31.5,15.9,0000.0,0008.34,0003.96,0003.62
2022-08-17 23:42:00,,0831.0,5.01,0.00,29.5,27.7,00.0,38.1,31.3,16.7,0000.0,0008.31,0003.95,0003.60
2022-08-17 23:43:00,,0831.0,4.99,0.00,29.5,27.2,00.0,38.1,31.2,16.2,0000.0,0008.31,0003.95,0003.59
2022-08-17 23:44:00,,0831.0,5.01,0.00,29.4,27.2,00.0,38.1,31.1,16.4,0000.0,0008.67,0003.96,0003.59
2022-08-17 23:45:00,,0831.0,4.99,0.00,29.4,27.3,00.0,38.1,31.1,16.3,0000.0,0008.56,0003.91,0003.57
2022-08-17 23:46:00,,0831.0,5.00,0.00,29.3,27.5,00.0,38.1,31.2,17.0,0000.0,0008.16,0003.91,0003.58
2022-08-17 23:47:00,,0831.0,5.00,0.00,29.4,27.7,00.0,38.1,31.3,16.5,0000.0,0007.17,0003.93,0003.59
2022-08-17 23:48:00,,0831.0,5.00,0.00,29.4,27.9,00.0,38.1,31.3,16.4,0000.0,0007.11,0003.92,0003.59
2022-08-17 23:49:00,,0831.0,5.01,0.00,29.4,28.1,00.0,38.1,31.4,16.4,0000.0,0007.10,0003.91,0003.58
2022-08-17 23:50:00,,0831.0,5.00,0.00,29.5,28.2,00.0,38.2,31.5,16.0,0000.0,0007.19,0003.92,0003.57
2022-08-17 23:51:00,,0831.0,4.99,0.00,29.5,28.4,00.0,38.2,31.5,16.7,0000.0,0006.93,0003.89,0003.57
2022-08-17 23:52:00,,0831.0,5.02,0.00,29.6,28.6,00.0,38.2,31.6,16.7,0000.0,0007.79,0003.92,0003.57
2022-08-17 23:53:00,,0831.0,4.99,0.00,29.6,28.6,00.0,38.2,31.6,16.7,0000.0,0008.93,0003.93,0003.58
2022-08-17 23:54:00,,0831.1,5.00,0.00,29.6,27.9,00.0,38.2,31.4,17.1,0000.0,0008.96,0003.94,0003.58
2022-08-17 23:55:00,,0831.0,5.01,0.00,29.5,27.3,00.0,38.2,31.2,16.9,0000.0,0008.43,0003.91,0003.57
2022-08-17 23:56:00,,0831.0,5.00,0.00,29.5,27.2,00.0,38.1,31.2,16.5,0000.0,0008.38,0003.91,0003.59
2022-08-17 23:57:00,,0831.1,5.00,0.00,29.4,27.3,00.0,38.1,31.1,16.8,0000.0,0008.32,0003.89,0003.59
2022-08-17 23:58:00,,0831.0,4.99,0.00,29.4,27.4,00.0,38.1,31.2,16.6,0000.0,0008.25,0003.90,0003.59
2022-08-17 23:59:00,,0831.1,5.00,0.00,29.4,27.7,00.0,38.1,31.3,16.7,0000.0,0008.31,0003.91,0003.61
